1511622000.71,35386,8.56,72626.0,-4.25,-20.19,-19.75,0,*58
1511622001.97,35387,8.5,72664.8,-4.23,-20.25,-19.81,0,*5B
1511622003.26,35388,8.56,72682.0,-4.23,-20.15,-19.57,0,*5C
1511622004.52,35389,8.56,72698.3,-4.23,-20.09,-19.57,0,*50
1511622005.79,35390,8.5,72692.3,-4.23,-20.09,-19.57,0,*58
1511622007.05,35391,8.56,72692.5,-4.23,-20.09,-19.57,0,*59
1511622008.31,35392,8.56,72674.3,-4.23,-20.09,-19.57,0,*5A
1511622009.58,35393,8.56,72694.5,-4.23,-20.09,-19.57,0,*5B
1511622010.84,35394,8.56,72732.8,-4.23,-20.09,-19.57,0,*5C
1511622012.1,35395,8.5,72698.0,-4.23,-20.09,-19.65,0,*5C
1511622013.35,35396,8.56,72682.0,-4.23,-20.15,-19.71,0,*57
1511622014.63,35397,8.56,72702.5,-4.23,-20.15,-19.81,0,*59
1511622015.87,35398,8.5,72690.0,-4.23,-20.25,-19.71,0,*5A
1511622017.12,35399,8.56,72684.3,-4.23,-20.25,-19.81,0,*54
1511622018.36,35400,8.5,72700.3,-4.23,-20.25,-19.71,0,*5C
1511622019.64,35401,8.56,72708.3,-4.23,-20.15,-19.65,0,*5B
1511622020.92,35402,8.5,72726.0,-4.23,-20.15,-19.65,0,*58
1511622022.18,35403,8.56,72708.8,-4.23,-20.25,-19.81,0,*50
1511622023.41,35404,8.5,72712.0,-4.23,-20.25,-19.71,0,*58
1511622024.65,35405,8.5,72724.5,-4.21,-20.25,-19.65,0,*5E
1511622025.92,35406,8.5,72726.5,-4.23,-20.25,-19.65,0,*5F
1511622027.17,35407,8.56,72744.3,-4.25,-20.19,-19.85,0,*59
1511622028.41,35408,8.5,72730.8,-4.25,-20.25,-19.81,0,*5D
1511622029.66,35409,8.5,72730.3,-4.23,-20.15,-19.71,0,*56
1511622030.92,35410,8.5,72730.8,-4.23,-20.15,-19.71,0,*5E
1511622032.15,35411,8.5,72694.5,-4.23,-20.25,-19.71,0,*5C
1511622033.43,35412,8.5,72722.3,-4.23,-20.15,-19.81,0,*53
1511622034.64,35413,8.5,72736.3,-4.25,-20.29,-19.75,0,*50
1511622035.84,35414,8.5,72732.8,-4.25,-20.29,-19.75,0,*57
1511622037.13,35415,8.56,72730.5,-4.23,-20.15,-19.57,0,*5F
1511622038.33,35416,8.56,72752.5,-4.25,-20.29,-19.75,0,*55
1511622039.61,35417,8.5,72742.5,-4.23,-20.15,-19.81,0,*56
1511622040.84,35418,8.5,72728.5,-4.25,-20.29,-19.85,0,*54
1511622042.07,35419,8.5,72748.5,-4.25,-20.29,-19.85,0,*55
1511622043.3,35420,8.5,72762.5,-4.27,-20.29,-19.91,0,*58
1511622044.56,35421,8.5,72774.3,-4.25,-20.19,-19.85,0,*5D
1511622045.82,35422,8.5,72770.5,-4.23,-20.25,-19.85,0,*57
1511622047.1,35423,8.5,72766.5,-4.23,-20.15,-19.85,0,*55
1511622048.33,35424,8.56,72792.0,-4.25,-20.19,-19.91,0,*5D
1511622049.61,35425,8.56,72802.8,-4.23,-20.15,-19.81,0,*57
1511622050.87,35426,8.5,72774.0,-4.23,-20.15,-19.71,0,*5B
1511622052.1,35427,8.5,72740.8,-4.25,-20.19,-19.75,0,*54
1511622053.31,35428,8.56,72748.5,-4.25,-20.29,-19.75,0,*58
1511622054.51,35429,8.56,72758.3,-4.25,-20.29,-19.91,0,*53
1511622055.74,35430,8.5,72760.0,-4.25,-20.29,-19.85,0,*5E
1511622057.0,35431,8.5,72762.3,-4.27,-20.35,-19.99,0,*5D
1511622058.26,35432,8.5,72752.0,-4.25,-20.19,-19.85,0,*5F
1511622059.54,35433,8.5,72746.8,-4.27,-20.15,-19.85,0,*50
1511622060.8,35434,8.5,72740.5,-4.27,-20.15,-19.71,0,*5C
1511622062.03,35435,8.5,72742.0,-4.27,-20.29,-19.91,0,*5C
1511622063.29,35436,8.5,72744.0,-4.27,-20.49,-19.99,0,*51
1511622064.56,35437,8.5,72746.8,-4.27,-20.49,-20.05,0,*5F
1511622065.79,35438,8.5,72750.3,-4.25,-20.63,-20.15,0,*5B
1511622067.06,35439,8.5,72744.5,-4.27,-20.63,-20.19,0,*54
1511622068.34,35440,8.5,72698.8,-4.27,-20.35,-20.15,0,*55
1511622069.57,35441,8.5,72688.5,-4.25,-20.35,-20.05,0,*57
1511622070.82,35442,8.5,72684.5,-4.25,-20.63,-20.19,0,*5A
1511622072.07,35443,8.5,72670.0,-4.25,-20.53,-20.15,0,*54
1511622073.34,35444,8.5,72728.3,-4.25,-20.49,-20.19,0,*54
1511622074.61,35445,8.5,72722.5,-4.25,-20.49,-20.19,0,*55
1511622075.86,35446,8.5,72722.8,-4.27,-20.35,-20.05,0,*52
1511622077.13,35447,8.5,72752.8,-4.25,-20.49,-20.19,0,*57
1511622078.39,35448,8.5,72766.0,-4.25,-20.49,-20.19,0,*58
1511622079.65,35449,8.5,72652.3,-4.25,-20.49,-20.15,0,*55
1511622080.89,35450,8.5,72516.8,-4.25,-20.35,-19.99,0,*58
1511622082.15,35451,8.5,72518.8,-4.25,-20.49,-20.15,0,*5C
1511622083.38,35452,8.5,72546.8,-4.25,-20.35,-20.05,0,*55
1511622084.61,35453,8.5,72618.8,-4.25,-20.35,-19.75,0,*59
1511622085.87,35454,8.5,72584.5,-4.25,-20.19,-19.85,0,*5F
1511622087.1,35455,8.5,72582.3,-4.25,-20.19,-19.75,0,*51
1511622088.33,35456,8.5,72600.8,-4.23,-20.09,-19.71,0,*51
1511622089.59,35457,8.5,72630.3,-4.23,-20.09,-19.81,0,*5F
1511622090.81,35458,8.5,72668.5,-4.25,-20.29,-19.85,0,*50
1511622092.04,35459,8.5,72662.3,-4.25,-20.29,-19.85,0,*51
1511622093.29,35460,8.5,72676.5,-4.23,-20.39,-19.95,0,*5D
1511622094.53,35461,8.5,72690.8,-4.23,-20.39,-19.95,0,*5C
1511622095.77,35462,8.5,72688.5,-4.23,-20.43,-19.95,0,*52
1511622097.01,35463,8.5,72726.0,-4.23,-20.39,-19.99,0,*52
1511622098.24,35464,8.5,72692.3,-4.23,-20.29,-19.99,0,*54
1511622099.5,35465,8.5,72670.3,-4.23,-20.39,-19.85,0,*59
1511622100.73,35466,8.5,72680.5,-4.23,-20.29,-19.95,0,*5A
1511622101.97,35467,8.5,72700.8,-4.23,-20.39,-20.09,0,*55
1511622103.21,35468,8.5,72724.3,-4.23,-20.39,-19.99,0,*59
1511622104.44,35469,8.5,72712.8,-4.23,-20.29,-19.99,0,*59
1511622105.68,35470,8.5,72740.3,-4.23,-20.43,-20.09,0,*5E
1511622106.9,35471,8.5,72716.5,-4.25,-20.43,-19.99,0,*5A
1511622108.15,35472,8.5,72710.5,-4.23,-20.29,-19.85,0,*5E
1511622109.39,35473,8.5,72724.3,-4.23,-20.39,-19.99,0,*53
1511622110.63,35474,8.5,72778.5,-4.25,-20.49,-20.05,0,*5A
1511622111.87,35475,8.5,72808.8,-4.25,-20.49,-19.99,0,*54
1511622113.12,35476,8.5,72724.8,-4.25,-19.99,-19.57,0,*52
1511622114.38,35477,8.5,72628.8,-4.23,-20.09,-19.57,0,*56
1511622115.61,35478,8.5,72656.0,-4.23,-20.09,-19.71,0,*5D
1511622116.84,35479,8.5,72628.3,-4.23,-20.09,-19.71,0,*5C
1511622118.13,35480,8.5,72652.0,-4.23,-19.85,-19.65,0,*51
1511622119.36,35481,8.5,72676.0,-4.23,-20.09,-19.71,0,*5B
1511622120.59,35482,8.5,72732.5,-4.23,-20.09,-19.71,0,*58
1511622121.84,35483,8.5,72716.0,-4.23,-20.15,-19.71,0,*54
1511622123.06,35484,8.5,72704.5,-4.21,-20.25,-19.71,0,*52
1511622124.31,35485,8.5,72724.0,-4.23,-20.15,-19.71,0,*52
1511622125.57,35486,8.5,72728.8,-4.21,-20.15,-19.81,0,*5C
1511622126.81,35487,8.5,72738.5,-4.21,-20.15,-19.71,0,*52
1511622128.09,35488,8.5,72736.0,-4.23,-20.15,-19.81,0,*50
1511622129.35,35489,8.5,72760.3,-4.23,-20.25,-19.85,0,*56
1511622130.58,35490,8.5,72736.8,-4.21,-20.29,-19.85,0,*50
1511622131.84,35491,8.5,72722.0,-4.21,-20.15,-19.81,0,*5A
1511622133.08,35492,8.5,72722.3,-4.23,-20.39,-19.95,0,*50
1511622134.3,35493,8.5,72738.3,-4.21,-20.43,-20.09,0,*51
1511622135.52,35494,8.5,72722.3,-4.21,-20.43,-19.99,0,*55
1511622136.73,35495,8.5,72738.0,-4.21,-20.29,-19.99,0,*58
1511622137.99,35496,8.5,72746.0,-4.21,-20.15,-19.85,0,*59
1511622139.24,35497,8.5,72768.5,-4.21,-19.99,-19.65,0,*58
1511622140.47,35498,8.5,72682.3,-4.19,-20.09,-19.75,0,*5E
1511622141.68,35499,8.5,72652.5,-4.21,-20.29,-19.95,0,*58
1511622142.89,35500,8.5,72628.5,-4.21,-20.29,-19.95,0,*59
1511622144.12,35501,8.5,72646.3,-4.23,-20.29,-19.95,0,*5A
1511622145.33,35502,8.5,72686.5,-4.21,-20.29,-19.95,0,*5B
1511622146.59,35503,8.5,72694.8,-4.19,-20.35,-20.05,0,*5F
1511622147.83,35504,8.5,72682.5,-4.17,-20.35,-19.99,0,*59
1511622149.07,35505,8.5,72674.3,-4.23,-20.43,-20.09,0,*5D
1511622150.29,35506,8.5,72652.3,-4.21,-20.39,-19.95,0,*5E
1511622151.55,35507,8.5,72670.0,-4.23,-20.29,-19.85,0,*5D
1511622152.79,35508,8.5,72666.3,-4.23,-20.39,-19.95,0,*52
1511622154.02,35509,8.5,72702.0,-4.21,-20.29,-19.85,0,*51
1511622155.23,35510,8.5,72688.5,-4.21,-20.29,-19.95,0,*58
1511622156.44,35511,8.5,72690.8,-4.21,-20.29,-19.95,0,*59
1511622157.66,35512,8.5,72700.3,-4.21,-20.39,-19.95,0,*5B
1511622158.93,35513,8.5,72704.0,-4.23,-20.49,-20.09,0,*50
1511622160.19,35514,8.5,72710.3,-4.23,-20.49,-20.09,0,*57
1511622161.43,35515,8.5,72712.3,-4.23,-20.43,-19.99,0,*5F
1511622162.66,35516,8.5,72698.8,-4.21,-20.43,-19.95,0,*52
1511622163.94,35517,8.5,72696.0,-4.23,-20.15,-19.81,0,*57
1511622165.2,35518,8.5,72724.0,-4.21,-20.15,-19.65,0,*50
1511622166.41,35519,8.5,72734.0,-4.21,-20.25,-19.71,0,*57
1511622167.64,35520,8.5,72702.3,-4.23,-20.29,-19.95,0,*59
1511622168.89,35521,8.5,72710.5,-4.23,-20.43,-19.95,0,*54
1511622170.12,35522,8.5,72694.8,-4.19,-20.09,-19.75,0,*5E
1511622171.36,35523,8.5,72686.8,-4.21,-20.15,-19.71,0,*5D
1511622172.62,35524,8.5,72690.3,-4.21,-20.15,-19.65,0,*5F
1511622173.86,35525,8.5,72696.8,-4.21,-20.09,-19.65,0,*53
1511622175.1,35526,8.5,72690.5,-4.21,-20.09,-19.57,0,*51
1511622176.34,35527,8.5,72676.5,-4.21,-20.09,-19.65,0,*51
1511622177.6,35528,8.5,72682.0,-4.19,-20.05,-19.65,0,*59
1511622178.86,35529,8.5,72668.0,-4.19,-20.05,-19.61,0,*5C
1511622180.12,35530,8.5,72710.5,-4.19,-20.09,-19.65,0,*5C
1511622181.38,35531,8.5,72708.5,-4.19,-20.19,-19.75,0,*5D
1511622182.61,35532,8.5,72708.0,-4.19,-20.25,-19.91,0,*5B
1511622183.82,35533,8.5,72704.8,-4.17,-20.29,-19.75,0,*52
1511622185.08,35534,8.5,72738.3,-4.19,-20.25,-19.81,0,*5C
1511622186.32,35535,8.5,72732.5,-4.19,-20.43,-19.91,0,*5C
1511622187.57,35536,8.5,72728.8,-4.19,-20.43,-19.91,0,*5F
1511622188.78,35537,8.5,72734.0,-4.17,-20.29,-19.75,0,*56
1511622190.06,35538,8.5,72722.8,-4.19,-20.35,-19.81,0,*51
1511622191.26,35539,8.5,72738.0,-4.17,-20.29,-19.75,0,*58
1511622192.53,35540,8.5,72746.0,-4.19,-20.43,-19.81,0,*5F
1511622193.79,35541,8.5,72762.8,-4.17,-20.35,-19.85,0,*55
1511622195.05,35542,8.5,72766.3,-4.17,-20.49,-19.85,0,*5D
1511622196.32,35543,8.5,72744.8,-4.19,-20.53,-19.91,0,*5C
1511622197.59,35544,8.5,72760.8,-4.19,-20.53,-19.95,0,*5F
1511622198.84,35545,8.5,72768.3,-4.19,-20.43,-19.95,0,*5F
1511622200.1,35546,8.5,72774.3,-4.19,-20.53,-20.05,0,*5E
1511622201.37,35547,8.5,72790.3,-4.19,-20.53,-20.05,0,*5F
1511622202.64,35548,8.5,72786.3,-4.19,-20.59,-20.19,0,*57
1511622203.9,35549,8.5,72756.5,-4.19,-20.53,-20.05,0,*51
1511622205.15,35550,8.5,72774.3,-4.19,-20.43,-20.05,0,*58
1511622206.37,35551,8.5,72768.8,-4.17,-20.39,-19.91,0,*5D
1511622207.64,35552,8.5,72798.0,-4.19,-20.53,-19.95,0,*58
1511622208.88,35553,8.5,72796.3,-4.19,-20.39,-19.91,0,*51
1511622210.12,35554,8.5,72802.5,-4.17,-20.49,-19.91,0,*5F
1511622211.38,35555,8.5,72806.5,-4.19,-20.53,-19.91,0,*5B
1511622212.65,35556,8.5,72812.0,-4.19,-20.53,-19.95,0,*5C
1511622213.92,35557,8.5,72810.8,-4.19,-20.53,-19.95,0,*5D
1511622215.17,35558,8.5,72806.8,-4.19,-20.59,-20.05,0,*5B
1511622216.43,35559,8.5,72804.3,-4.19,-20.69,-20.19,0,*54
1511622217.69,35560,8.5,72794.5,-4.19,-20.73,-20.19,0,*55
1511622218.99,35561,8.44,72764.3,-4.19,-20.83,-20.19,0,*5B
1511622220.23,35562,8.5,72754.0,-4.19,-20.59,-20.05,0,*52
1511622221.45,35563,8.5,72742.0,-4.17,-20.63,-20.05,0,*54
1511622222.74,35564,8.5,72738.0,-4.19,-20.99,-20.35,0,*5B
1511622224.02,35565,8.5,72746.3,-4.19,-21.03,-20.39,0,*54
1511622225.29,35566,8.5,72756.5,-4.19,-21.03,-20.39,0,*57
1511622226.56,35567,8.5,72752.0,-4.19,-21.03,-20.43,0,*5B
1511622227.8,35568,8.5,72746.8,-4.19,-21.17,-20.69,0,*59
1511622229.07,35569,8.5,72734.0,-4.19,-21.33,-20.69,0,*5E
1511622230.34,35570,8.5,72706.8,-4.19,-21.27,-20.73,0,*58
1511622231.58,35571,8.5,72708.5,-4.19,-21.17,-20.69,0,*51
1511622232.8,35572,8.5,72718.8,-4.21,-21.17,-20.63,0,*53
1511622234.04,35573,8.5,72726.8,-4.23,-21.09,-20.43,0,*5D
1511622235.31,35574,8.5,72742.0,-4.23,-21.03,-20.43,0,*50
1511622236.55,35575,8.44,72760.5,-4.21,-20.79,-20.25,0,*5F
1511622237.78,35576,8.5,72764.3,-4.21,-20.89,-20.25,0,*53
1511622239.02,35577,8.5,72764.0,-4.23,-20.93,-20.29,0,*57
1511622240.24,35578,8.5,72760.8,-4.21,-20.89,-20.29,0,*51
1511622241.46,35579,8.44,72708.0,-4.21,-20.89,-20.39,0,*51
1511622242.69,35580,8.5,72720.5,-4.21,-20.89,-20.29,0,*56
1511622243.91,35581,8.44,72728.3,-4.21,-20.89,-20.39,0,*56
1511622245.14,35582,8.5,72732.0,-4.21,-20.93,-20.39,0,*5E
1511622246.41,35583,8.5,72700.3,-4.23,-21.03,-20.39,0,*55
1511622247.65,35584,8.5,72730.0,-4.21,-20.79,-20.25,0,*51
1511622248.9,35585,8.44,72744.3,-4.21,-20.79,-20.25,0,*50
1511622250.16,35586,8.44,72748.5,-4.21,-20.79,-20.15,0,*50
1511622251.37,35587,8.5,72748.8,-4.21,-20.73,-20.09,0,*56
1511622252.59,35588,8.5,72744.8,-4.21,-20.63,-20.09,0,*58
1511622253.81,35589,8.5,72750.5,-4.21,-20.63,-20.09,0,*59
1511622255.07,35590,8.5,72742.3,-4.21,-20.79,-20.15,0,*57
1511622256.31,35591,8.44,72754.3,-4.19,-20.69,-20.05,0,*5D
1511622257.53,35592,8.44,72760.0,-4.21,-20.73,-20.09,0,*52
1511622258.74,35593,8.5,72788.3,-4.21,-20.63,-19.99,0,*51
1511622260.01,35594,8.44,72644.5,-4.19,-20.39,-19.65,0,*51
1511622261.26,35595,8.5,72598.0,-4.19,-20.43,-19.91,0,*56
1511622262.51,35596,8.5,72616.0,-4.19,-20.59,-19.95,0,*5A
1511622263.75,35597,8.5,72602.0,-4.19,-20.59,-19.95,0,*5B
1511622264.99,35598,8.5,72658.3,-4.21,-20.79,-20.09,0,*52
1511622266.26,35599,8.44,72608.3,-4.21,-20.79,-20.15,0,*5E
1511622267.47,35600,8.5,72632.3,-4.21,-20.73,-19.99,0,*59
1511622268.69,35601,8.44,72640.3,-4.21,-20.63,-20.09,0,*5A
1511622269.91,35602,8.5,72642.0,-4.21,-20.63,-19.99,0,*5A
1511622271.13,35603,8.44,72666.0,-4.21,-20.63,-20.09,0,*58
1511622272.37,35604,8.44,72654.8,-4.19,-20.59,-19.95,0,*52
1511622273.59,35605,8.44,72686.0,-4.21,-20.73,-19.95,0,*50
1511622274.83,35606,8.44,72722.3,-4.21,-20.79,-20.09,0,*56
1511622276.05,35607,8.44,72718.5,-4.21,-20.73,-20.09,0,*5D
1511622277.29,35608,8.44,72696.8,-4.21,-20.79,-20.09,0,*58
1511622278.55,35609,8.5,72716.0,-4.23,-20.79,-20.09,0,*5B
1511622279.81,35610,8.5,72714.8,-4.17,-20.83,-20.15,0,*5C
1511622281.07,35611,8.5,72724.3,-4.21,-20.79,-20.15,0,*5D
1511622282.31,35612,8.44,72724.8,-4.21,-20.93,-20.15,0,*5A
1511622283.55,35613,8.44,72742.3,-4.21,-20.89,-20.15,0,*50
1511622284.81,35614,8.44,72740.0,-4.23,-20.89,-20.15,0,*55
1511622286.07,35615,8.44,72750.8,-4.21,-20.79,-20.15,0,*59
1511622287.33,35616,8.44,72766.8,-4.23,-20.79,-20.09,0,*55
1511622288.55,35617,8.44,72756.3,-4.21,-20.89,-19.99,0,*5A
1511622289.79,35618,8.44,72758.8,-4.23,-20.73,-19.99,0,*52
1511622291.02,35619,8.44,72764.5,-4.23,-20.73,-19.99,0,*53
1511622292.26,35620,8.44,72764.3,-4.19,-20.69,-19.91,0,*53
1511622293.5,35621,8.44,72760.5,-4.21,-20.79,-19.95,0,*5C
1511622294.72,35622,8.44,72766.5,-4.21,-20.73,-19.99,0,*59
1511622295.95,35623,8.44,72786.3,-4.23,-20.73,-19.99,0,*5A
1511622297.19,35624,8.44,72788.0,-4.23,-20.89,-19.99,0,*58
1511622298.43,35625,8.44,72772.3,-4.23,-20.93,-19.99,0,*52
1511622299.64,35626,8.44,72780.8,-4.21,-20.93,-19.99,0,*53
1511622300.88,35627,8.44,72774.5,-4.23,-20.93,-20.09,0,*53
1511622302.13,35628,8.44,72752.3,-4.23,-20.89,-20.25,0,*59
1511622303.39,35629,8.5,72746.5,-4.23,-20.89,-20.15,0,*5B
1511622304.62,35630,8.44,72748.8,-4.23,-20.73,-19.99,0,*58
1511622305.86,35631,8.44,72746.8,-4.23,-20.73,-20.09,0,*5A
1511622307.12,35632,8.44,72742.0,-4.23,-20.79,-20.09,0,*53
1511622308.35,35633,8.44,72742.3,-4.23,-20.73,-19.99,0,*5B
1511622309.62,35634,8.44,72742.8,-4.21,-20.49,-19.65,0,*54
1511622310.88,35635,8.44,72670.3,-4.23,-20.49,-19.71,0,*52
1511622312.13,35636,8.44,72722.0,-4.21,-20.59,-19.85,0,*59
1511622313.38,35637,8.44,72708.0,-4.21,-20.43,-19.57,0,*5C
1511622314.59,35638,8.44,72690.8,-4.21,-20.25,-19.47,0,*52
1511622315.83,35639,8.44,72694.5,-4.19,-20.69,-19.91,0,*5B
1511622317.07,35640,8.44,72662.5,-4.21,-20.89,-19.85,0,*55
1511622318.34,35641,8.44,72718.5,-4.21,-20.79,-19.81,0,*5F
1511622319.59,35642,8.44,72636.8,-4.21,-20.59,-19.57,0,*55
1511622320.83,35643,8.44,72642.3,-4.19,-20.73,-19.91,0,*5D
1511622322.07,35644,8.44,72652.0,-4.21,-21.03,-20.09,0,*5C
1511622323.31,35645,8.44,72624.0,-4.21,-21.03,-20.09,0,*5D
1511622324.56,35646,8.44,72656.3,-4.21,-21.03,-20.09,0,*5E
1511622325.78,35647,8.44,72612.3,-4.21,-20.89,-19.95,0,*53
1511622327.02,35648,8.44,72540.8,-4.19,-20.73,-19.75,0,*5C
1511622328.28,35649,8.44,72540.0,-4.19,-20.83,-19.91,0,*58
1511622329.53,35650,8.44,72622.0,-4.19,-20.93,-20.09,0,*5A
1511622330.79,35651,8.44,72668.3,-4.19,-20.83,-19.95,0,*55
1511622332.04,35652,8.44,72666.3,-4.17,-20.83,-20.05,0,*5B
1511622333.28,35653,8.44,72672.5,-4.17,-20.83,-19.91,0,*5D
1511622334.52,35654,8.44,72690.3,-4.17,-20.83,-19.99,0,*52
1511622335.79,35655,8.44,72702.5,-4.19,-20.83,-19.95,0,*51
1511622337.03,35656,8.44,72722.8,-4.17,-20.83,-19.99,0,*50
1511622338.28,35657,8.44,72722.3,-4.19,-20.69,-19.95,0,*57
1511622339.54,35658,8.44,72724.0,-4.19,-20.69,-19.81,0,*5D
1511622340.81,35659,8.44,72710.5,-4.19,-20.83,-19.95,0,*5D
1511622342.07,35660,8.44,72664.3,-4.17,-20.83,-20.15,0,*5B
1511622343.28,35661,8.44,72670.0,-4.17,-21.09,-20.29,0,*56
1511622344.5,35662,8.44,72694.0,-4.17,-21.09,-20.29,0,*55
1511622345.76,35663,8.44,72746.0,-4.19,-21.13,-20.35,0,*5C
1511622347.0,35664,8.44,72780.0,-4.19,-20.73,-20.09,0,*53
1511622348.24,35665,8.44,72694.3,-4.19,-20.69,-19.91,0,*52
1511622349.48,35666,8.44,72736.5,-4.19,-20.69,-19.75,0,*5B
1511622350.72,35667,8.44,72610.8,-4.17,-20.19,-19.37,0,*55
1511622351.95,35668,8.44,72646.0,-4.17,-20.29,-19.41,0,*58
1511622353.18,35669,8.5,72666.5,-4.17,-20.35,-19.47,0,*52
1511622354.39,35670,8.44,72692.8,-4.17,-20.29,-19.47,0,*57
1511622355.62,35671,8.44,72660.3,-4.15,-20.05,-19.37,0,*5D
1511622356.88,35672,8.44,72672.5,-4.15,-20.35,-19.47,0,*5A
1511622358.15,35673,8.44,72716.3,-4.15,-20.39,-19.57,0,*56
1511622359.41,35674,8.44,72674.3,-4.13,-20.35,-19.41,0,*5C
1511622360.62,35675,8.44,72658.0,-4.13,-20.29,-19.37,0,*51
1511622361.89,35676,8.44,72686.3,-4.15,-20.53,-19.75,0,*5F
1511622363.15,35677,8.44,72702.3,-4.13,-20.79,-19.81,0,*5B
1511622364.41,35678,8.44,72644.8,-4.13,-20.79,-19.81,0,*54
1511622365.66,35679,8.44,72656.8,-4.13,-21.03,-19.95,0,*5C
1511622366.92,35680,8.44,72654.3,-4.11,-20.63,-19.65,0,*50
1511622368.17,35681,8.44,72668.0,-4.13,-20.63,-19.65,0,*53
1511622369.41,35682,8.44,72636.5,-4.11,-20.43,-19.51,0,*57
1511622370.64,35683,8.44,72660.3,-4.15,-20.93,-19.99,0,*5B
1511622371.93,35684,8.44,72696.3,-4.15,-20.99,-20.15,0,*58
1511622373.22,35685,8.44,72656.5,-4.15,-20.99,-20.15,0,*59
1511622374.49,35686,8.44,72636.8,-4.15,-20.99,-19.99,0,*54
1511622375.73,35687,8.44,72608.8,-4.13,-20.93,-19.85,0,*54
1511622376.97,35688,8.44,72624.5,-4.13,-21.03,-20.09,0,*5D
1511622378.23,35689,8.44,72646.0,-4.15,-21.09,-20.19,0,*51
1511622379.5,35690,8.44,72666.3,-4.15,-21.09,-20.19,0,*59
1511622380.74,35691,8.44,72672.5,-4.15,-21.13,-20.29,0,*50
1511622381.98,35692,8.44,72696.8,-4.15,-21.13,-20.29,0,*53
1511622383.22,35693,8.44,72696.8,-4.15,-21.09,-20.29,0,*59
1511622384.47,35694,8.44,72694.8,-4.13,-21.23,-20.25,0,*5C
1511622385.74,35695,8.44,72672.5,-4.13,-21.23,-20.35,0,*5C
1511622386.98,35696,8.44,72686.0,-4.13,-21.39,-20.49,0,*5F
1511622388.25,35697,8.44,72754.0,-4.15,-21.39,-20.53,0,*53
1511622389.52,35698,8.44,72712.5,-4.13,-21.33,-20.35,0,*50
1511622390.79,35699,8.44,72656.5,-4.13,-21.23,-20.35,0,*50
1511622392.05,35700,8.44,72622.8,-4.13,-21.23,-20.35,0,*51
1511622393.3,35701,8.44,72662.0,-4.13,-21.23,-20.29,0,*5D
1511622394.52,35702,8.44,72666.5,-4.13,-21.17,-20.29,0,*59
1511622395.75,35703,8.44,72688.3,-4.13,-21.09,-20.15,0,*58
1511622397.01,35704,8.44,72686.8,-4.15,-21.09,-20.15,0,*59
1511622398.28,35705,8.44,72700.0,-4.13,-21.03,-20.15,0,*54
1511622399.54,35706,8.44,72740.3,-4.13,-21.03,-20.15,0,*57
1511622400.81,35707,8.44,72704.3,-4.15,-21.13,-20.19,0,*5D
1511622402.03,35708,8.44,72746.5,-4.13,-21.17,-20.25,0,*5F
1511622403.3,35709,8.44,72748.0,-4.15,-21.23,-20.29,0,*53
1511622404.57,35710,8.44,72736.8,-4.15,-21.23,-20.29,0,*5B
1511622405.79,35711,8.44,72754.5,-4.13,-21.17,-20.25,0,*57
1511622407.04,35712,8.44,72742.5,-4.13,-21.23,-20.25,0,*53
1511622408.3,35713,8.44,72758.8,-4.15,-21.27,-20.29,0,*5C
1511622409.55,35714,8.44,72760.8,-4.13,-21.23,-20.29,0,*59
1511622410.84,35715,8.44,72754.0,-4.15,-21.27,-20.35,0,*57
1511622412.13,35716,8.44,72748.5,-4.15,-21.27,-20.35,0,*54
1511622413.42,35717,8.44,72754.5,-4.15,-21.27,-20.35,0,*55
1511622414.67,35718,8.44,72764.0,-4.15,-21.43,-20.39,0,*54
1511622415.93,35719,8.44,72750.5,-4.15,-21.39,-20.35,0,*54
1511622417.17,35720,8.44,72736.8,-4.17,-21.39,-20.35,0,*5C
1511622418.44,35721,8.44,72748.0,-4.15,-21.13,-20.19,0,*59
1511622419.71,35722,8.44,72728.3,-4.15,-21.13,-20.19,0,*5A
1511622421.0,35723,8.44,72676.3,-4.15,-21.23,-20.19,0,*58
1511622422.27,35724,8.44,72664.3,-4.15,-21.27,-20.29,0,*58
1511622423.51,35725,8.44,72668.3,-4.13,-21.33,-20.29,0,*5A
1511622424.8,35726,8.44,72684.8,-4.15,-21.27,-20.35,0,*57
1511622426.06,35727,8.44,72688.3,-4.15,-21.39,-20.35,0,*59
1511622427.29,35728,8.44,72640.3,-4.17,-21.39,-20.39,0,*58
1511622428.53,35729,8.44,72636.8,-4.17,-21.39,-20.35,0,*55
1511622429.77,35730,8.44,72616.8,-4.17,-21.39,-20.35,0,*5D
1511622431.0,35731,8.44,72646.5,-4.17,-21.39,-20.35,0,*5C
1511622432.23,35732,8.44,72690.5,-4.17,-21.47,-20.39,0,*5A
1511622433.45,35733,8.44,72726.5,-4.13,-21.43,-20.43,0,*56
1511622434.74,35734,8.44,72724.3,-4.15,-21.23,-20.35,0,*50
1511622436.03,35735,8.44,72744.3,-4.15,-21.27,-20.35,0,*55
1511622437.26,35736,8.44,72692.8,-4.13,-21.17,-20.25,0,*52
1511622438.5,35737,8.44,72704.0,-4.15,-21.39,-20.39,0,*54
1511622439.77,35738,8.44,72698.8,-4.15,-21.39,-20.35,0,*57
1511622441.0,35739,8.44,72704.3,-4.17,-21.43,-20.35,0,*59
1511622442.27,35740,8.44,72720.5,-4.17,-21.27,-20.35,0,*55
1511622443.49,35741,8.44,72728.0,-4.17,-21.39,-20.29,0,*56
1511622444.7,35742,8.44,72738.8,-4.17,-21.39,-20.29,0,*55
1511622445.95,35743,8.44,72726.8,-4.17,-21.23,-20.29,0,*5F
1511622447.19,35744,8.44,72742.0,-4.17,-21.23,-20.29,0,*58
1511622448.44,35745,8.44,72740.5,-4.17,-21.23,-20.29,0,*59
1511622449.65,35746,8.44,72746.0,-4.17,-21.39,-20.29,0,*51
1511622450.89,35747,8.44,72758.3,-4.17,-21.39,-20.35,0,*5D
1511622452.11,35748,8.44,72730.8,-4.17,-21.43,-20.39,0,*53
1511622453.35,35749,8.44,72724.8,-4.17,-21.39,-20.35,0,*53
1511622454.57,35750,8.44,72744.0,-4.17,-21.43,-20.39,0,*5A
1511622455.82,35751,8.44,72744.8,-4.17,-21.39,-20.35,0,*5A
1511622457.05,35752,8.44,72756.8,-4.17,-21.39,-20.35,0,*59
1511622458.28,35753,8.44,72754.5,-4.17,-21.39,-20.39,0,*54
1511622459.52,35754,8.44,72750.8,-4.17,-21.39,-20.35,0,*5F
1511622460.76,35755,8.44,72764.8,-4.19,-21.43,-20.39,0,*51
1511622462.0,35756,8.44,72740.8,-4.17,-21.39,-20.35,0,*5D
1511622463.22,35757,8.44,72748.8,-4.17,-21.43,-20.39,0,*5D
1511622464.46,35758,8.44,72746.3,-4.17,-21.43,-20.35,0,*5E
1511622465.71,35759,8.44,72720.0,-4.19,-21.47,-20.39,0,*59
1511622466.94,35760,8.44,72684.8,-4.17,-21.47,-20.39,0,*5D
1511622468.24,35761,8.44,72738.5,-4.19,-21.53,-20.53,0,*5B
1511622469.48,35762,8.44,72740.8,-4.19,-21.63,-20.59,0,*51
1511622470.71,35763,8.44,72688.5,-4.17,-21.47,-20.39,0,*5E
1511622471.93,35764,8.44,72730.5,-4.17,-21.47,-20.39,0,*59
1511622473.17,35765,8.38,72726.5,-4.19,-21.43,-20.43,0,*5F
1511622474.44,35766,8.44,72700.3,-4.17,-21.27,-20.35,0,*51
1511622475.71,35767,8.44,72722.3,-4.17,-21.27,-20.35,0,*50
1511622476.98,35768,8.44,72748.0,-4.19,-21.33,-20.39,0,*58
1511622478.25,35769,8.44,72784.8,-4.17,-21.27,-20.35,0,*5E
1511622479.54,35770,8.44,72768.0,-4.19,-21.27,-20.35,0,*58
1511622480.8,35771,8.44,72794.3,-4.19,-21.17,-20.35,0,*5A
1511622482.07,35772,8.44,72804.8,-4.19,-21.17,-20.35,0,*59
1511622483.36,35773,8.44,72802.0,-4.19,-21.33,-20.35,0,*5E
1511622484.6,35774,8.44,72788.0,-4.19,-21.17,-20.25,0,*5E
1511622485.82,35775,8.44,72786.8,-4.17,-21.09,-20.05,0,*5C
1511622487.06,35776,8.44,72792.5,-4.19,-21.17,-20.09,0,*52
1511622488.33,35777,8.38,72790.0,-4.17,-21.23,-20.19,0,*5B
1511622489.6,35778,8.44,72776.0,-4.19,-21.27,-20.25,0,*51
1511622490.87,35779,8.44,72788.5,-4.19,-21.27,-20.29,0,*5C
1511622492.11,35780,8.38,72796.3,-4.19,-21.13,-20.05,0,*53
1511622493.38,35781,8.44,72788.8,-4.19,-21.03,-20.25,0,*51
1511622494.61,35782,8.44,72780.3,-4.19,-20.73,-19.75,0,*5B
1511622495.83,35783,8.44,72768.5,-4.17,-20.93,-19.99,0,*58
1511622497.06,35784,8.38,72750.3,-4.17,-21.09,-20.15,0,*53
1511622498.31,35785,8.44,72764.5,-4.17,-21.23,-20.29,0,*55
1511622499.55,35786,8.38,72784.3,-4.17,-21.23,-20.29,0,*56
1511622500.8,35787,8.38,72786.5,-4.17,-21.23,-20.29,0,*57
1511622502.06,35788,8.44,72754.5,-4.19,-20.69,-19.81,0,*51
1511622503.3,35789,8.44,72754.3,-4.17,-20.69,-19.61,0,*50
1511622504.54,35790,8.38,72748.3,-4.17,-21.09,-20.15,0,*56
1511622505.77,35791,8.44,72746.8,-4.17,-21.43,-20.35,0,*5B
1511622507.02,35792,8.44,72748.8,-4.19,-21.43,-20.39,0,*5A
1511622508.27,35793,8.38,72736.5,-4.19,-21.47,-20.39,0,*5F
1511622509.51,35794,8.44,72726.0,-4.17,-21.43,-20.49,0,*55
1511622510.76,35795,8.44,72716.8,-4.19,-21.63,-20.59,0,*59